Time,TemperatureF,DewpointF,PressureIn,WindDirection,WindDirectionDegrees,WindSpeedMPH,WindSpeedGustMPH,Humidity,HourlyPrecipIn,Conditions,Clouds,dailyrainin,SoftwareType,DateUTC
2013-07-12 00:00:00,67.4,65.6,29.91,WNW,297,0.0,0.0,94,0.00,,,0.01,Wunderground v.1.15,2013-07-12 04:00:00,
2013-07-12 00:05:00,67.2,65.4,29.91,WNW,297,0.0,0.0,94,0.00,,,0.00,Wunderground v.1.15,2013-07-12 04:05:00,
2013-07-12 00:10:00,67.1,65.0,29.91,WNW,297,0.0,0.0,93,0.00,,,0.00,Wunderground v.1.15,2013-07-12 04:10:00,
2013-07-12 00:15:00,67.0,65.2,29.91,WNW,297,0.0,0.0,94,0.00,,,0.00,Wunderground v.1.15,2013-07-12 04:15:00,
2013-07-12 00:25:00,66.8,65.0,29.91,WNW,297,0.0,1.0,94,0.00,,,0.00,Wunderground v.1.15,2013-07-12 04:25:00,
2013-07-12 00:30:00,66.8,65.0,29.91,WNW,297,0.0,0.0,94,0.00,,,0.00,Wunderground v.1.15,2013-07-12 04:30:00,
2013-07-12 00:35:00,66.8,65.0,29.91,WNW,297,0.0,0.0,94,0.00,,,0.00,Wunderground v.1.15,2013-07-12 04:35:00,
2013-07-12 00:40:00,66.7,64.9,29.91,WNW,297,0.0,0.0,94,0.00,,,0.00,Wunderground v.1.15,2013-07-12 04:40:00,
2013-07-12 00:45:00,66.7,64.9,29.91,WNW,297,0.0,0.0,94,0.00,,,0.00,Wunderground v.1.15,2013-07-12 04:45:00,
2013-07-12 00:50:00,66.6,64.8,29.91,WNW,297,0.0,0.0,94,0.00,,,0.00,Wunderground v.1.15,2013-07-12 04:50:00,
2013-07-12 00:55:00,66.5,64.7,29.91,WNW,297,0.0,0.0,94,0.00,,,0.00,Wunderground v.1.15,2013-07-12 04:55:00,
2013-07-12 01:00:00,66.4,64.6,29.91,WNW,297,0.0,0.0,94,0.00,,,0.00,Wunderground v.1.15,2013-07-12 05:00:00,
2013-07-12 01:10:00,66.0,64.2,29.91,WNW,297,0.0,0.0,94,0.00,,,0.00,Wunderground v.1.15,2013-07-12 05:10:00,
2013-07-12 01:15:00,65.8,64.0,29.91,WNW,297,0.0,0.0,94,0.00,,,0.00,Wunderground v.1.15,2013-07-12 05:15:00,
2013-07-12 01:25:00,65.6,63.8,29.91,WNW,297,0.0,0.0,94,0.00,,,0.00,Wunderground v.1.15,2013-07-12 05:25:00,
2013-07-12 01:30:00,65.5,63.7,29.91,WNW,297,0.0,0.0,94,0.00,,,0.00,Wunderground v.1.15,2013-07-12 05:30:00,
2013-07-12 01:40:00,65.3,63.5,29.91,WNW,297,0.0,0.0,94,0.00,,,0.00,Wunderground v.1.15,2013-07-12 05:40:00,
2013-07-12 01:45:00,65.3,63.5,29.91,WNW,297,0.0,0.0,94,0.00,,,0.00,Wunderground v.1.15,2013-07-12 05:45:00,
2013-07-12 01:55:00,65.1,63.3,29.91,WNW,297,0.0,0.0,94,0.00,,,0.00,Wunderground v.1.15,2013-07-12 05:55:00,
2013-07-12 02:05:00,64.9,63.1,29.92,WNW,297,0.0,1.0,94,0.00,,,0.00,Wunderground v.1.15,2013-07-12 06:05:00,
2013-07-12 02:10:00,64.9,63.1,29.92,WNW,297,0.0,0.0,94,0.00,,,0.00,Wunderground v.1.15,2013-07-12 06:10:00,
2013-07-12 02:15:00,64.9,63.1,29.91,WNW,297,0.0,0.0,94,0.00,,,0.00,Wunderground v.1.15,2013-07-12 06:15:00,
2013-07-12 02:20:00,64.8,63.0,29.92,WNW,297,0.0,0.0,94,0.00,,,0.00,Wunderground v.1.15,2013-07-12 06:20:00,
2013-07-12 02:25:00,64.8,63.0,29.92,WNW,297,0.0,0.0,94,0.00,,,0.00,Wunderground v.1.15,2013-07-12 06:25:00,
2013-07-12 02:30:00,64.7,62.9,29.92,WNW,297,0.0,0.0,94,0.00,,,0.00,Wunderground v.1.15,2013-07-12 06:30:00,
2013-07-12 02:40:00,64.5,62.7,29.92,WNW,297,0.0,0.0,94,0.00,,,0.00,Wunderground v.1.15,2013-07-12 06:40:00,
2013-07-12 02:45:00,64.4,62.6,29.92,WNW,297,0.0,0.0,94,0.00,,,0.00,Wunderground v.1.15,2013-07-12 06:45:00,
2013-07-12 02:55:00,64.3,62.5,29.92,WNW,297,0.0,0.0,94,0.00,,,0.00,Wunderground v.1.15,2013-07-12 06:55:00,
2013-07-12 03:00:00,64.3,62.5,29.92,WNW,297,0.0,0.0,94,0.00,,,0.00,Wunderground v.1.15,2013-07-12 07:00:00,
2013-07-12 03:05:00,64.3,62.5,29.92,WNW,297,0.0,0.0,94,0.00,,,0.00,Wunderground v.1.15,2013-07-12 07:05:00,
2013-07-12 03:10:00,64.3,62.5,29.92,WNW,297,0.0,0.0,94,0.00,,,0.00,Wunderground v.1.15,2013-07-12 07:10:00,
2013-07-12 03:15:00,64.2,62.4,29.92,WNW,297,0.0,0.0,94,0.00,,,0.00,Wunderground v.1.15,2013-07-12 07:15:00,
2013-07-12 03:25:00,64.2,62.7,29.92,WNW,297,0.0,0.0,95,0.00,,,0.00,Wunderground v.1.15,2013-07-12 07:25:00,
2013-07-12 03:30:00,64.1,62.6,29.92,WNW,297,0.0,0.0,95,0.00,,,0.00,Wunderground v.1.15,2013-07-12 07:30:00,
2013-07-12 03:40:00,64.0,62.2,29.91,WNW,297,0.0,0.0,94,0.00,,,0.00,Wunderground v.1.15,2013-07-12 07:40:00,
2013-07-12 03:45:00,63.9,62.1,29.92,WNW,297,0.0,0.0,94,0.00,,,0.00,Wunderground v.1.15,2013-07-12 07:45:00,
2013-07-12 03:50:00,63.8,62.0,29.92,WNW,297,0.0,0.0,94,0.00,,,0.00,Wunderground v.1.15,2013-07-12 07:50:00,
2013-07-12 03:55:00,63.8,62.0,29.92,WNW,297,0.0,0.0,94,0.00,,,0.00,Wunderground v.1.15,2013-07-12 07:55:00,
2013-07-12 04:00:00,63.7,61.9,29.92,WNW,297,0.0,0.0,94,0.00,,,0.00,Wunderground v.1.15,2013-07-12 08:00:00,
2013-07-12 04:10:00,63.6,62.1,29.92,WNW,297,0.0,0.0,95,0.00,,,0.00,Wunderground v.1.15,2013-07-12 08:10:00,
2013-07-12 04:15:00,63.5,62.0,29.91,WNW,297,0.0,0.0,95,0.00,,,0.00,Wunderground v.1.15,2013-07-12 08:15:00,
2013-07-12 04:25:00,63.4,61.6,29.91,WNW,297,0.0,0.0,94,0.00,,,0.00,Wunderground v.1.15,2013-07-12 08:25:00,
2013-07-12 04:30:00,63.3,61.8,29.91,WNW,297,0.0,0.0,95,0.00,,,0.00,Wunderground v.1.15,2013-07-12 08:30:00,
2013-07-12 04:40:00,63.1,61.6,29.91,WNW,297,0.0,0.0,95,0.00,,,0.00,Wunderground v.1.15,2013-07-12 08:40:00,
2013-07-12 04:45:00,62.9,61.4,29.91,WNW,297,0.0,0.0,95,0.00,,,0.00,Wunderground v.1.15,2013-07-12 08:45:00,
2013-07-12 04:55:00,62.7,61.2,29.91,WNW,297,0.0,0.0,95,0.00,,,0.00,Wunderground v.1.15,2013-07-12 08:55:00,
2013-07-12 05:00:00,62.6,61.1,29.91,WNW,297,0.0,0.0,95,0.00,,,0.00,Wunderground v.1.15,2013-07-12 09:00:00,
2013-07-12 05:05:00,62.5,61.0,29.91,WNW,297,0.0,0.0,95,0.00,,,0.00,Wunderground v.1.15,2013-07-12 09:05:00,
2013-07-12 05:10:00,62.5,61.0,29.92,WNW,297,0.0,0.0,95,0.00,,,0.00,Wunderground v.1.15,2013-07-12 09:10:00,
2013-07-12 05:20:00,62.5,61.0,29.92,WNW,297,0.0,0.0,95,0.00,,,0.00,Wunderground v.1.15,2013-07-12 09:20:00,
2013-07-12 05:25:00,62.6,61.1,29.92,WNW,297,0.0,0.0,95,0.00,,,0.00,Wunderground v.1.15,2013-07-12 09:25:00,
2013-07-12 05:30:00,62.7,61.2,29.92,WNW,297,0.0,0.0,95,0.00,,,0.00,Wunderground v.1.15,2013-07-12 09:30:00,
2013-07-12 05:40:00,62.8,61.3,29.92,WNW,297,0.0,0.0,95,0.00,,,0.00,Wunderground v.1.15,2013-07-12 09:40:00,
2013-07-12 05:50:00,62.9,61.4,29.93,WNW,297,0.0,0.0,95,0.00,,,0.00,Wunderground v.1.15,2013-07-12 09:50:00,
2013-07-12 05:55:00,63.1,61.6,29.93,WNW,297,0.0,0.0,95,0.00,,,0.00,Wunderground v.1.15,2013-07-12 09:55:00,
2013-07-12 06:00:00,63.1,61.6,29.93,WNW,297,0.0,0.0,95,0.00,,,0.00,Wunderground v.1.15,2013-07-12 10:00:00,
2013-07-12 06:10:00,63.2,61.7,29.93,WNW,297,0.0,0.0,95,0.00,,,0.00,Wunderground v.1.15,2013-07-12 10:10:00,
2013-07-12 06:20:00,63.3,61.8,29.94,WNW,297,0.0,0.0,95,0.00,,,0.00,Wunderground v.1.15,2013-07-12 10:20:00,
2013-07-12 06:25:00,63.2,61.7,29.94,WNW,297,0.0,0.0,95,0.00,,,0.00,Wunderground v.1.15,2013-07-12 10:25:00,
2013-07-12 06:30:00,63.2,61.7,29.94,WNW,297,0.0,0.0,95,0.00,,,0.00,Wunderground v.1.15,2013-07-12 10:30:00,
2013-07-12 06:35:00,63.2,61.7,29.94,WNW,297,0.0,0.0,95,0.00,,,0.00,Wunderground v.1.15,2013-07-12 10:35:00,
2013-07-12 06:40:00,63.1,61.6,29.94,WNW,297,0.0,0.0,95,0.00,,,0.00,Wunderground v.1.15,2013-07-12 10:40:00,
2013-07-12 06:45:00,63.0,61.5,29.94,WNW,297,0.0,0.0,95,0.00,,,0.00,Wunderground v.1.15,2013-07-12 10:45:00,
2013-07-12 06:55:00,62.9,61.4,29.94,WNW,297,0.0,0.0,95,0.00,,,0.00,Wunderground v.1.15,2013-07-12 10:55:00,
2013-07-12 07:00:00,62.9,61.4,29.94,WNW,297,0.0,0.0,95,0.00,,,0.00,Wunderground v.1.15,2013-07-12 11:00:00,
2013-07-12 07:10:00,63.0,61.5,29.94,WNW,297,0.0,0.0,95,0.00,,,0.00,Wunderground v.1.15,2013-07-12 11:10:00,
2013-07-12 07:15:00,62.9,61.4,29.94,WNW,297,0.0,0.0,95,0.00,,,0.00,Wunderground v.1.15,2013-07-12 11:15:00,
2013-07-12 07:20:00,62.8,61.3,29.95,WNW,297,0.0,0.0,95,0.00,,,0.00,Wunderground v.1.15,2013-07-12 11:20:00,
2013-07-12 07:25:00,62.9,61.4,29.95,WNW,297,0.0,0.0,95,0.00,,,0.00,Wunderground v.1.15,2013-07-12 11:25:00,
2013-07-12 07:30:00,63.1,61.6,29.95,WNW,297,0.0,0.0,95,0.00,,,0.01,Wunderground v.1.15,2013-07-12 11:30:00,
2013-07-12 07:40:00,63.5,62.0,29.95,WNW,297,0.0,0.0,95,0.00,,,0.01,Wunderground v.1.15,2013-07-12 11:40:00,
2013-07-12 07:45:00,63.6,62.1,29.95,WNW,297,0.0,0.0,95,0.00,,,0.01,Wunderground v.1.15,2013-07-12 11:45:00,
2013-07-12 07:55:00,64.1,62.6,29.95,WNW,297,0.0,0.0,95,0.00,,,0.01,Wunderground v.1.15,2013-07-12 11:55:00,
2013-07-12 08:00:00,64.3,62.8,29.95,North,355,0.0,0.0,95,0.00,,,0.01,Wunderground v.1.15,2013-07-12 12:00:00,
2013-07-12 08:10:00,64.5,63.0,29.96,North,355,0.0,0.0,95,0.00,,,0.01,Wunderground v.1.15,2013-07-12 12:10:00,
2013-07-12 08:15:00,64.9,63.4,29.96,East,101,0.0,0.0,95,0.00,,,0.01,Wunderground v.1.15,2013-07-12 12:15:00,
2013-07-12 08:25:00,65.2,63.7,29.97,East,97,0.0,0.0,95,0.00,,,0.01,Wunderground v.1.15,2013-07-12 12:25:00,
2013-07-12 08:30:00,65.5,64.0,29.97,East,97,0.0,0.0,95,0.00,,,0.01,Wunderground v.1.15,2013-07-12 12:30:00,
2013-07-12 08:40:00,66.1,64.6,29.97,East,90,0.0,0.0,95,0.00,,,0.01,Wunderground v.1.15,2013-07-12 12:40:00,
2013-07-12 08:50:00,66.5,65.0,29.96,East,96,0.0,0.0,95,0.00,,,0.01,Wunderground v.1.15,2013-07-12 12:50:00,
2013-07-12 08:55:00,66.9,65.4,29.96,East,96,0.0,1.0,95,0.00,,,0.01,Wunderground v.1.15,2013-07-12 12:55:00,
2013-07-12 09:00:00,67.2,65.7,29.96,East,96,1.0,1.0,95,0.00,,,0.01,Wunderground v.1.15,2013-07-12 13:00:00,
2013-07-12 09:05:00,67.6,66.1,29.96,East,96,0.0,1.0,95,0.00,,,0.01,Wunderground v.1.15,2013-07-12 13:05:00,
2013-07-12 09:10:00,68.1,66.6,29.96,East,96,0.0,0.0,95,0.00,,,0.01,Wunderground v.1.15,2013-07-12 13:10:00,
2013-07-12 09:15:00,68.8,67.3,29.97,East,96,0.0,0.0,95,0.00,,,0.01,Wunderground v.1.15,2013-07-12 13:15:00,
2013-07-12 09:25:00,69.6,68.1,29.96,East,96,0.0,0.0,95,0.00,,,0.01,Wunderground v.1.15,2013-07-12 13:25:00,
2013-07-12 09:30:00,70.2,68.1,29.96,East,79,1.0,1.0,93,0.00,,,0.01,Wunderground v.1.15,2013-07-12 13:30:00,
2013-07-12 09:40:00,71.1,67.4,29.97,ENE,76,1.0,3.0,88,0.00,,,0.01,Wunderground v.1.15,2013-07-12 13:40:00,
2013-07-12 09:45:00,71.7,67.6,29.97,ENE,63,1.0,3.0,87,0.00,,,0.01,Wunderground v.1.15,2013-07-12 13:45:00,
2013-07-12 09:50:00,72.6,68.8,29.96,East,98,0.0,0.0,88,0.00,,,0.01,Wunderground v.1.15,2013-07-12 13:50:00,
2013-07-12 09:55:00,73.1,68.0,29.96,ENE,59,0.0,0.0,84,0.00,,,0.01,Wunderground v.1.15,2013-07-12 13:55:00,
2013-07-12 10:00:00,73.7,67.9,29.96,ENE,65,1.0,1.0,82,0.00,,,0.01,Wunderground v.1.15,2013-07-12 14:00:00,
2013-07-12 10:10:00,75.0,69.8,29.96,SE,139,1.0,1.0,84,0.00,,,0.01,Wunderground v.1.15,2013-07-12 14:10:00,
2013-07-12 10:15:00,74.8,68.9,29.96,South,186,1.0,2.0,82,0.00,,,0.01,Wunderground v.1.15,2013-07-12 14:15:00,
2013-07-12 10:20:00,74.8,68.2,29.96,SSW,209,1.0,1.0,80,0.00,,,0.01,Wunderground v.1.15,2013-07-12 14:20:00,
2013-07-12 10:30:00,75.6,67.1,29.96,SE,142,1.0,6.0,75,0.00,,,0.01,Wunderground v.1.15,2013-07-12 14:30:00,
2013-07-12 10:35:00,75.9,66.2,29.96,ESE,120,1.0,6.0,72,0.00,,,0.01,Wunderground v.1.15,2013-07-12 14:35:00,
2013-07-12 10:40:00,76.4,67.9,29.96,ESE,122,1.0,4.0,75,0.00,,,0.01,Wunderground v.1.15,2013-07-12 14:40:00,
2013-07-12 10:45:00,76.4,65.5,29.96,ESE,121,1.0,4.0,69,0.00,,,0.01,Wunderground v.1.15,2013-07-12 14:45:00,
2013-07-12 10:55:00,77.3,67.2,29.96,West,281,1.0,1.0,71,0.00,,,0.01,Wunderground v.1.15,2013-07-12 14:55:00,
2013-07-12 11:00:00,77.8,68.4,29.96,South,182,1.0,1.0,73,0.00,,,0.01,Wunderground v.1.15,2013-07-12 15:00:00,
2013-07-12 11:05:00,77.6,69.0,29.96,WSW,244,0.0,1.0,75,0.00,,,0.01,Wunderground v.1.15,2013-07-12 15:05:00,
2013-07-12 11:10:00,77.1,68.2,29.96,WSW,244,0.0,0.0,74,0.00,,,0.01,Wunderground v.1.15,2013-07-12 15:10:00,
2013-07-12 11:15:00,76.8,69.8,29.96,WSW,244,0.0,0.0,79,0.00,,,0.01,Wunderground v.1.15,2013-07-12 15:15:00,
2013-07-12 11:25:00,76.5,68.4,29.95,NW,326,0.0,1.0,76,0.00,,,0.01,Wunderground v.1.15,2013-07-12 15:25:00,
2013-07-12 11:30:00,77.1,67.4,29.95,NW,314,1.0,1.0,72,0.00,,,0.01,Wunderground v.1.15,2013-07-12 15:30:00,
2013-07-12 11:40:00,76.9,67.6,29.96,NW,324,1.0,1.0,73,0.00,,,0.01,Wunderground v.1.15,2013-07-12 15:40:00,
2013-07-12 11:50:00,75.2,66.3,29.96,West,276,2.0,4.0,74,0.00,,,0.01,Wunderground v.1.15,2013-07-12 15:50:00,
2013-07-12 11:55:00,74.3,66.6,29.96,West,267,3.0,4.0,77,0.00,,,0.01,Wunderground v.1.15,2013-07-12 15:55:00,
2013-07-12 12:00:00,73.9,67.0,29.96,West,263,3.0,3.0,79,0.00,,,0.01,Wunderground v.1.15,2013-07-12 16:00:00,
2013-07-12 12:10:00,73.4,66.9,29.96,NNW,329,1.0,1.0,80,0.00,,,0.01,Wunderground v.1.15,2013-07-12 16:10:00,
2013-07-12 12:15:00,73.4,67.6,29.96,NW,326,0.0,1.0,82,0.00,,,0.01,Wunderground v.1.15,2013-07-12 16:15:00,
2013-07-12 12:25:00,75.6,67.9,29.95,West,278,4.0,8.0,77,0.00,,,0.01,Wunderground v.1.15,2013-07-12 16:25:00,
2013-07-12 12:30:00,76.5,68.0,29.95,West,273,5.0,5.0,75,0.00,,,0.01,Wunderground v.1.15,2013-07-12 16:30:00,
2013-07-12 12:40:00,77.4,67.7,29.95,NW,304,3.0,3.0,72,0.00,,,0.01,Wunderground v.1.15,2013-07-12 16:40:00,
2013-07-12 12:45:00,77.2,67.5,29.95,WNW,288,2.0,3.0,72,0.00,,,0.01,Wunderground v.1.15,2013-07-12 16:45:00,
2013-07-12 12:55:00,76.0,65.5,29.95,WNW,288,1.0,2.0,70,0.00,,,0.01,Wunderground v.1.15,2013-07-12 16:55:00,
2013-07-12 13:00:00,75.4,66.5,29.95,WNW,288,0.0,0.0,74,0.00,,,0.01,Wunderground v.1.15,2013-07-12 17:00:00,
2013-07-12 13:10:00,75.3,66.4,29.95,SSW,194,0.0,1.0,74,0.00,,,0.01,Wunderground v.1.15,2013-07-12 17:10:00,
2013-07-12 13:15:00,76.2,68.1,29.95,West,276,1.0,1.0,76,0.00,,,0.01,Wunderground v.1.15,2013-07-12 17:15:00,
2013-07-12 13:25:00,78.2,69.2,29.95,WNW,286,2.0,6.0,74,0.00,,,0.01,Wunderground v.1.15,2013-07-12 17:25:00,
2013-07-12 13:30:00,78.2,65.0,29.95,West,261,3.0,3.0,64,0.00,,,0.01,Wunderground v.1.15,2013-07-12 17:30:00,
2013-07-12 13:35:00,77.8,66.8,29.95,WSW,237,2.0,3.0,69,0.00,,,0.01,Wunderground v.1.15,2013-07-12 17:35:00,
2013-07-12 13:40:00,77.6,68.3,29.95,WSW,237,1.0,1.0,73,0.00,,,0.01,Wunderground v.1.15,2013-07-12 17:40:00,
2013-07-12 13:50:00,76.5,67.2,29.94,ENE,78,0.0,0.0,73,0.00,,,0.01,Wunderground v.1.15,2013-07-12 17:50:00,
2013-07-12 13:55:00,76.4,65.5,29.95,WNW,288,1.0,1.0,69,0.00,,,0.01,Wunderground v.1.15,2013-07-12 17:55:00,
2013-07-12 14:00:00,76.3,65.8,29.95,SE,130,2.0,2.0,70,0.00,,,0.01,Wunderground v.1.15,2013-07-12 18:00:00,
2013-07-12 14:10:00,75.1,67.0,29.95,West,265,1.0,1.0,76,0.00,,,0.01,Wunderground v.1.15,2013-07-12 18:10:00,
2013-07-12 14:15:00,74.8,66.7,29.94,WSW,246,1.0,1.0,76,0.00,,,0.01,Wunderground v.1.15,2013-07-12 18:15:00,
2013-07-12 14:20:00,75.1,68.1,29.94,WSW,253,1.0,2.0,79,0.00,,,0.01,Wunderground v.1.15,2013-07-12 18:20:00,
2013-07-12 14:25:00,75.1,67.4,29.94,WSW,253,1.0,2.0,77,0.00,,,0.01,Wunderground v.1.15,2013-07-12 18:25:00,
2013-07-12 14:30:00,74.8,67.8,29.94,WSW,253,0.0,0.0,79,0.00,,,0.01,Wunderground v.1.15,2013-07-12 18:30:00,
2013-07-12 14:40:00,74.3,68.1,29.94,WSW,253,0.0,0.0,81,0.00,,,0.01,Wunderground v.1.15,2013-07-12 18:40:00,
2013-07-12 14:50:00,73.6,67.4,29.94,WSW,253,0.0,0.0,81,0.00,,,0.01,Wunderground v.1.15,2013-07-12 18:50:00,
2013-07-12 14:55:00,73.4,67.2,29.94,WSW,253,0.0,0.0,81,0.00,,,0.01,Wunderground v.1.15,2013-07-12 18:55:00,
2013-07-12 15:00:00,73.7,66.4,29.94,WSW,255,0.0,1.0,78,0.00,,,0.01,Wunderground v.1.15,2013-07-12 19:00:00,
2013-07-12 15:10:00,74.4,67.8,29.94,WSW,245,0.0,1.0,80,0.00,,,0.01,Wunderground v.1.15,2013-07-12 19:10:00,
2013-07-12 15:20:00,74.1,66.8,29.93,SE,139,1.0,1.0,78,0.00,,,0.01,Wunderground v.1.15,2013-07-12 19:20:00,
2013-07-12 15:25:00,74.3,68.8,29.94,SE,140,0.0,1.0,83,0.00,,,0.01,Wunderground v.1.15,2013-07-12 19:25:00,
2013-07-12 15:30:00,75.3,69.8,29.94,SE,139,0.0,0.0,83,0.00,,,0.01,Wunderground v.1.15,2013-07-12 19:30:00,
2013-07-12 15:40:00,78.4,67.8,29.93,NNE,12,2.0,2.0,70,0.00,,,0.01,Wunderground v.1.15,2013-07-12 19:40:00,
2013-07-12 15:45:00,78.6,70.0,29.93,ESE,120,2.0,2.0,75,0.00,,,0.01,Wunderground v.1.15,2013-07-12 19:45:00,
2013-07-12 15:50:00,77.8,70.0,29.93,SE,128,1.0,1.0,77,0.00,,,0.01,Wunderground v.1.15,2013-07-12 19:50:00,
2013-07-12 15:55:00,76.9,68.8,29.93,SE,127,0.0,1.0,76,0.00,,,0.01,Wunderground v.1.15,2013-07-12 19:55:00,
2013-07-12 16:00:00,77.0,65.2,29.93,West,275,1.0,1.0,67,0.00,,,0.01,Wunderground v.1.15,2013-07-12 20:00:00,
2013-07-12 16:10:00,76.3,66.6,29.93,South,174,0.0,0.0,72,0.00,,,0.01,Wunderground v.1.15,2013-07-12 20:10:00,
2013-07-12 16:20:00,75.1,67.8,29.93,SSW,193,0.0,2.0,78,0.00,,,0.01,Wunderground v.1.15,2013-07-12 20:20:00,
2013-07-12 16:25:00,75.0,67.7,29.92,SSW,194,0.0,2.0,78,0.00,,,0.01,Wunderground v.1.15,2013-07-12 20:25:00,
2013-07-12 16:30:00,74.7,66.6,29.92,SSW,194,0.0,0.0,76,0.00,,,0.01,Wunderground v.1.15,2013-07-12 20:30:00,
2013-07-12 16:40:00,75.1,66.6,29.92,SW,221,0.0,0.0,75,0.00,,,0.01,Wunderground v.1.15,2013-07-12 20:40:00,
2013-07-12 16:45:00,75.4,68.1,29.92,SW,221,0.0,0.0,78,0.00,,,0.01,Wunderground v.1.15,2013-07-12 20:45:00,
2013-07-12 16:55:00,76.1,68.4,29.92,South,186,0.0,2.0,77,0.00,,,0.01,Wunderground v.1.15,2013-07-12 20:55:00,
2013-07-12 17:05:00,75.6,67.9,29.92,South,186,0.0,1.0,77,0.00,,,0.01,Wunderground v.1.15,2013-07-12 21:05:00,
2013-07-12 17:10:00,75.4,67.7,29.92,South,169,1.0,1.0,77,0.00,,,0.01,Wunderground v.1.15,2013-07-12 21:10:00,
2013-07-12 17:20:00,75.8,67.3,29.93,SW,223,1.0,1.0,75,0.00,,,0.01,Wunderground v.1.15,2013-07-12 21:20:00,
2013-07-12 17:25:00,76.4,67.5,29.92,SW,220,0.0,1.0,74,0.00,,,0.01,Wunderground v.1.15,2013-07-12 21:25:00,
2013-07-12 17:30:00,77.3,68.4,29.93,West,273,0.0,8.0,74,0.00,,,0.01,Wunderground v.1.15,2013-07-12 21:30:00,
2013-07-12 17:40:00,77.3,67.6,29.93,SSE,165,2.0,2.0,72,0.00,,,0.01,Wunderground v.1.15,2013-07-12 21:40:00,
2013-07-12 17:45:00,77.1,67.8,29.93,WSW,252,0.0,2.0,73,0.00,,,0.01,Wunderground v.1.15,2013-07-12 21:45:00,
2013-07-12 17:50:00,77.1,68.9,29.93,WSW,248,1.0,1.0,76,0.00,,,0.01,Wunderground v.1.15,2013-07-12 21:50:00,
2013-07-12 17:55:00,76.9,68.0,29.93,WSW,249,1.0,1.0,74,0.00,,,0.01,Wunderground v.1.15,2013-07-12 21:55:00,
2013-07-12 18:05:00,77.4,68.1,29.94,SW,230,2.0,8.0,73,0.00,,,0.01,Wunderground v.1.15,2013-07-12 22:05:00,
2013-07-12 18:10:00,76.7,67.4,29.94,SW,231,2.0,3.0,73,0.00,,,0.01,Wunderground v.1.15,2013-07-12 22:10:00,
2013-07-12 18:20:00,77.1,66.1,29.93,West,273,2.0,2.0,69,0.00,,,0.01,Wunderground v.1.15,2013-07-12 22:20:00,
2013-07-12 18:25:00,77.3,65.9,29.94,West,275,1.0,2.0,68,0.00,,,0.01,Wunderground v.1.15,2013-07-12 22:25:00,
2013-07-12 18:30:00,77.5,67.8,29.94,WSW,244,2.0,2.0,72,0.00,,,0.01,Wunderground v.1.15,2013-07-12 22:30:00,
2013-07-12 18:35:00,76.9,67.2,29.94,East,79,2.0,2.0,72,0.00,,,0.01,Wunderground v.1.15,2013-07-12 22:35:00,
2013-07-12 18:40:00,76.1,66.8,29.94,SE,134,2.0,5.0,73,0.00,,,0.01,Wunderground v.1.15,2013-07-12 22:40:00,
2013-07-12 18:45:00,75.1,64.6,29.94,SSE,159,1.0,5.0,70,0.00,,,0.01,Wunderground v.1.15,2013-07-12 22:45:00,
2013-07-12 18:55:00,74.0,66.0,29.95,SSE,159,0.0,1.0,76,0.00,,,0.01,Wunderground v.1.15,2013-07-12 22:55:00,
2013-07-12 19:00:00,73.3,64.5,29.95,ENE,74,0.0,0.0,74,0.00,,,0.01,Wunderground v.1.15,2013-07-12 23:00:00,
2013-07-12 19:10:00,72.2,63.4,29.96,ESE,119,2.0,6.0,74,0.00,,,0.01,Wunderground v.1.15,2013-07-12 23:10:00,
2013-07-12 19:15:00,71.9,63.5,29.97,East,96,4.0,6.0,75,0.00,,,0.01,Wunderground v.1.15,2013-07-12 23:15:00,
2013-07-12 19:25:00,71.2,62.1,29.97,SSE,162,4.0,5.0,73,0.00,,,0.01,Wunderground v.1.15,2013-07-12 23:25:00,
2013-07-12 19:30:00,71.1,62.0,29.97,South,175,3.0,6.0,73,0.00,,,0.01,Wunderground v.1.15,2013-07-12 23:30:00,
2013-07-12 19:40:00,70.8,62.1,29.97,SE,141,4.0,4.0,74,0.00,,,0.01,Wunderground v.1.15,2013-07-12 23:40:00,
2013-07-12 19:45:00,70.7,62.4,29.97,WSW,257,3.0,4.0,75,0.00,,,0.01,Wunderground v.1.15,2013-07-12 23:45:00,
2013-07-12 19:55:00,70.4,62.5,29.98,SSE,155,1.0,2.0,76,0.00,,,0.01,Wunderground v.1.15,2013-07-12 23:55:00,
2013-07-12 20:05:00,70.1,63.3,29.98,East,89,0.0,1.0,79,0.00,,,0.01,Wunderground v.1.15,2013-07-13 00:05:00,
2013-07-12 20:10:00,69.8,63.0,29.98,SE,128,0.0,0.0,79,0.00,,,0.01,Wunderground v.1.15,2013-07-13 00:10:00,
2013-07-12 20:30:00,68.9,63.5,29.98,South,174,0.0,0.0,83,0.00,,,0.01,Wunderground v.1.15,2013-07-13 00:30:00,
2013-07-12 20:40:00,68.4,63.4,29.98,South,174,0.0,0.0,84,0.00,,,0.01,Wunderground v.1.15,2013-07-13 00:40:00,
2013-07-12 20:45:00,68.0,63.0,29.98,South,174,0.0,0.0,84,0.00,,,0.01,Wunderground v.1.15,2013-07-13 00:45:00,
2013-07-12 20:55:00,67.3,63.0,29.97,South,174,0.0,0.0,86,0.00,,,0.01,Wunderground v.1.15,2013-07-13 00:55:00,
2013-07-12 21:00:00,66.8,62.5,29.98,South,174,0.0,0.0,86,0.00,,,0.01,Wunderground v.1.15,2013-07-13 01:00:00,
2013-07-12 21:05:00,66.5,62.8,29.98,South,174,0.0,0.0,88,0.00,,,0.01,Wunderground v.1.15,2013-07-13 01:05:00,
2013-07-12 21:10:00,66.3,62.6,29.98,South,174,0.0,0.0,88,0.00,,,0.01,Wunderground v.1.15,2013-07-13 01:10:00,
2013-07-12 21:15:00,66.2,62.5,29.98,South,174,0.0,0.0,88,0.00,,,0.01,Wunderground v.1.15,2013-07-13 01:15:00,
2013-07-12 21:25:00,65.8,62.5,29.99,South,174,0.0,0.0,89,0.00,,,0.01,Wunderground v.1.15,2013-07-13 01:25:00,
2013-07-12 21:30:00,65.7,62.4,30.00,South,174,0.0,0.0,89,0.00,,,0.01,Wunderground v.1.15,2013-07-13 01:30:00,
2013-07-12 21:40:00,65.6,62.6,30.00,South,174,0.0,0.0,90,0.00,,,0.01,Wunderground v.1.15,2013-07-13 01:40:00,
2013-07-12 21:50:00,65.7,62.7,30.00,South,174,0.0,0.0,90,0.00,,,0.01,Wunderground v.1.15,2013-07-13 01:50:00,
2013-07-12 21:55:00,65.8,62.8,30.01,South,174,0.0,0.0,90,0.00,,,0.01,Wunderground v.1.15,2013-07-13 01:55:00,
2013-07-12 22:00:00,65.7,62.4,30.01,South,174,0.0,0.0,89,0.00,,,0.01,Wunderground v.1.15,2013-07-13 02:00:00,
2013-07-12 22:10:00,65.4,62.4,30.01,South,174,0.0,0.0,90,0.00,,,0.01,Wunderground v.1.15,2013-07-13 02:10:00,
2013-07-12 22:15:00,65.2,62.2,30.01,South,174,0.0,0.0,90,0.00,,,0.01,Wunderground v.1.15,2013-07-13 02:15:00,
2013-07-12 22:25:00,64.8,61.8,30.02,South,174,0.0,0.0,90,0.00,,,0.01,Wunderground v.1.15,2013-07-13 02:25:00,
2013-07-12 22:30:00,64.7,61.7,30.02,South,174,0.0,0.0,90,0.00,,,0.01,Wunderground v.1.15,2013-07-13 02:30:00,
2013-07-12 22:35:00,64.4,61.4,30.03,South,174,0.0,0.0,90,0.00,,,0.01,Wunderground v.1.15,2013-07-13 02:35:00,
2013-07-12 22:40:00,64.3,61.3,30.02,South,174,0.0,0.0,90,0.00,,,0.01,Wunderground v.1.15,2013-07-13 02:40:00,
2013-07-12 22:45:00,64.1,61.4,30.03,South,174,0.0,0.0,91,0.00,,,0.01,Wunderground v.1.15,2013-07-13 02:45:00,
2013-07-12 22:55:00,63.9,61.2,30.02,South,174,0.0,0.0,91,0.00,,,0.01,Wunderground v.1.15,2013-07-13 02:55:00,
2013-07-12 23:00:00,63.8,61.1,30.02,South,174,0.0,0.0,91,0.00,,,0.01,Wunderground v.1.15,2013-07-13 03:00:00,
2013-07-12 23:10:00,63.6,60.9,30.02,South,174,0.0,0.0,91,0.00,,,0.01,Wunderground v.1.15,2013-07-13 03:10:00,
2013-07-12 23:15:00,63.4,60.7,30.02,South,174,0.0,0.0,91,0.00,,,0.01,Wunderground v.1.15,2013-07-13 03:15:00,
2013-07-12 23:20:00,63.2,60.5,30.02,South,174,0.0,0.0,91,0.00,,,0.01,Wunderground v.1.15,2013-07-13 03:20:00,
2013-07-12 23:25:00,63.2,60.5,30.02,South,174,0.0,0.0,91,0.00,,,0.01,Wunderground v.1.15,2013-07-13 03:25:00,
2013-07-12 23:30:00,63.1,60.7,30.01,South,174,0.0,0.0,92,0.00,,,0.01,Wunderground v.1.15,2013-07-13 03:30:00,
2013-07-12 23:40:00,62.9,60.5,30.01,South,174,0.0,0.0,92,0.00,,,0.01,Wunderground v.1.15,2013-07-13 03:40:00,
2013-07-12 23:50:00,62.7,60.3,30.02,South,174,0.0,0.0,92,0.00,,,0.01,Wunderground v.1.15,2013-07-13 03:50:00,
2013-07-12 23:55:00,62.7,60.3,30.02,South,174,0.0,0.0,92,0.00,,,0.01,Wunderground v.1.15,2013-07-13 03:55:00,